Terminal Aerodrome Forecast
Issued by NWS

Home | Current Version | Previous Version | Text Only | Print | Product List | Glossary On
Versions: 1 2 3 4 5 6 7 8 9 10 11 12 13 14 15 16 17 18 19 20
000
FTUS44 KEWX 312300
TAFSSF
TAF
KSSF 312337Z 0100/0124 36007KT P6SM SKC
     FM010600 07005KT P6SM BKN035
     FM011000 03004KT P6SM BKN025
     FM011700 05005KT P6SM BKN050=

USA.gov is the U.S. government's official web portal to all federal, state and local government web resources and services.